Regional Weather Roundup
Issued by NWS Wakefield, VA

Home | Current Version | Previous Version | Graphics & Text | Print | Product List | Glossary On
Versions: 1 2 3 4 5 6 7 8 9 10 11 12 13 14 15 16 17 18 19 20 21 22 23 24 25 26 27 28 29 30 31 32 33 34 35 36 37 38 39 40 41 42 43 44 45 46 47 48 49 50
000
ASUS41 KAKQ 061615
RWRAKQ

REGIONAL WEATHER ROUNDUP
NATIONAL WEATHER SERVICE WAKEFIELD VA
1200 PM EDT WED MAY 06 2015

Note: "fair" indicates few or no clouds below 12,000 feet with no
significant weather and/or obstructions to visibility. * = Denotes
station may not report precipitation (e.g., rain,snow,etc.),
thunder or fog.

VAZ042-051-052>054-056-061700-
NORTHERN VIRGINIA

CITY           SKY/WX    TMP DP  RH WIND       PRES   REMARKS
WASH NATIONAL  MOSUNNY   80  65  59 NE8       30.22S
DULLES         MOSUNNY   80  63  55 NE7       30.21F
FORT BELVOIR   SUNNY     77  66  67 VRB3      30.21F
QUANTICO       PTSUNNY   68  63  84 S5        30.23S
FREDERICKSBRG* SUNNY     76  66  72 CALM      30.21S
STAFFORD*      SUNNY     74  64  69 E7        30.26S
WARRENTON      SUNNY     79  67  67 N5        30.21F
CULPEPER*      SUNNY     76  65  68 E6        30.21F
MANASSAS*      SUNNY     79  63  57 NE6       30.21F
LEESBURG*      SUNNY     79  66  65 N7        30.23F
WINCHESTER     SUNNY     79  57  47 NE5       30.22F
FRONT ROYAL*   FAIR      77  61  57 E3        30.21F
LURAY*         FAIR      81  63  54 NE5       30.22S
$$

VAZ048-049-060>072-079>083-061700-
CENTRAL AND SOUTH CENTRAL VIRGINIA

CITY           SKY/WX    TMP DP  RH WIND       PRES   REMARKS
RICHMOND       PTSUNNY   79  58  48 VRB6      30.21F
CHESTERFIELD*  FAIR      79  54  41 S7        30.23F
PETERSBURG*    MOSUNNY   79  55  43 SW5       30.23S
HANOVER        MOSUNNY   76  60  57 CALM      30.23S
TAPPAHANNOCK*  MOSUNNY   77  57  49 NE3       30.23S
QUINTON*       FAIR      77  58  52 S6        30.21F
CHARLOTTSVILLE MOSUNNY   79  64  60 VRB5      30.21S
GORDONSVILLE*  FAIR      75  66  72 NE5       30.21S
ORANGE*        SUNNY     75  66  73 N5        30.23S
LOUISA*        MOSUNNY   75  64  69 SE5       30.21F
BUMPASS*       PTSUNNY   73  64  75 CALM      30.22S
FARMVILLE*     CLOUDY    79  63  57 S6        30.21S
CREWE*         PTSUNNY   78  59  51 SE6       30.22F
FORT PICKETT*  FAIR      77  59  54 S5        30.23S
CHASE CITY*    PTSUNNY   79  62  55 SE3       30.22S
CLARKSVILLE*   FAIR      73  59  60 CALM      30.22F
SOUTH HILL*    MOSUNNY   75  58  55 CALM      30.29S
LAWRENCEVILLE* FAIR      77  59  53 S3        30.23S
EMPORIA*       MOSUNNY   77  55  47 CALM      30.24F
$$

VAZ088>098-061700-
SOUTHEAST VIRGINIA

CITY           SKY/WX    TMP DP  RH WIND       PRES   REMARKS
NORFOLK        MOSUNNY   77  52  41 SW6       30.23F
VIRGINIA BEACH PTSUNNY   80  57  45 CALM      30.23F
NORFOLK NAVAL  PTSUNNY   81  54  39 CALM      30.24F
WEST POINT*    MOSUNNY   80  53  39 S5        30.24F
SALUDA*        FAIR      72  60  66 E7        30.22F
NEWPORT NEWS   MOSUNNY   80  55  42 SW7       30.23F
LANGLEY AFB    MOSUNNY   76  54  46 S7        30.22F
FORT EUSTIS    MOSUNNY   75  55  50 VRB6      30.21F
WILLIAMSBURG*  MOSUNNY   81  61  50 SE5       30.24F
HR EXEC AP*    FAIR      79  57  47 CALM      30.25S
FRANKLIN*      MOSUNNY   76  54  46 CALM      30.24S
WAKEFIELD      MOSUNNY   77  58  51 VRB5      30.23F
$$

VAZ020-022-025-037-045-061700-
WEST CENTRAL AND SOUTHWEST VIRGINIA

CITY           SKY/WX    TMP DP  RH WIND       PRES   REMARKS
STAUNTON*      MOSUNNY   77  59  54 CALM      30.25S
WAYNESBORO*    FAIR      76  62  61 SW3       30.25S
HOT SPRINGS VA CLOUDY    70  48  46 N3        30.33S
LYNCHBURG      MOSUNNY   77  58  51 VRB3      30.23F
DANVILLE       SUNNY     79  60  52 W3        30.22F
SOUTH BOSTON*  FAIR      78  58  50 SE3       30.22S
MARTINSVILLE   CLOUDY    79  60  52 CALM      30.25S
ROANOKE        MOSUNNY   78  58  49 CALM      30.25F
BLACKSBURG     SUNNY     75  54  49 E3        30.30F
DUBLIN*        MOSUNNY   76  57  51 CALM      30.28F
MARION*        MOSUNNY   77  53  43 E7        30.30F
HILLSVILLE*    CLOUDY    73  53  48 CALM      30.29F
RICHLANDS*     FAIR      76  55  48 E6        30.29F
WISE*          MOSUNNY   77  52  41 N9        30.30S
ABINGDON*      SUNNY     78  56  46 CALM      30.27S
$$

MDZ021>025-VAZ099-100-061700-
SOUTHERN MARYLAND AND THE DELMARVA PENINSULA

CITY           SKY/WX    TMP DP  RH WIND       PRES   REMARKS
PATUXENT RIVER PTSUNNY   70  59  68 SE6       30.22F
BAY BRIDGE APT   N/A    N/A N/A N/A NW8       30.23S
LEONARDTOWN    SUNNY     72  59  64 CALM      30.24S
DOVER          MOSUNNY   74  64  70 E15       30.21S
GEORGETOWN     PTSUNNY   76  60  57 E16G24    30.23S
EASTON         MOSUNNY   77  66  69 CALM      30.26S
CAMBRIDGE      SUNNY     77  59  53 CALM      30.22S
SALISBURY      SUNNY     78  57  48 VRB3      30.22S
OCEAN CITY     SUNNY     68  57  68 S8        30.24S
WALLOPS ISLAND CLOUDY    72  60  66 S12       30.23F
ACCOMACK*      MOSUNNY   77  54  44 SW8       30.23F
$$

NCZ012>017-030>032-061700-
NORTH CENTRAL AND EASTERN NORTH CAROLINA

CITY           SKY/WX    TMP DP  RH WIND       PRES   REMARKS
ROANOKE RAPIDS FAIR      73  55  53 S3        30.24S
RALEIGH        PTSUNNY   77  57  50 VRB5      30.23F
ELIZABETH CITY MOSUNNY   74  56  53 SE10      30.25F
AHOSKIE*       MOSUNNY   75  54  48 SE3       30.24F
EDENTON*       MOSUNNY   74  58  56 S5        30.25F
CURRITUCK*     MOSUNNY   76  54  46 SE3       30.26S
KILL DEVIL HLS MOSUNNY   73  55  54 E7        30.25F
MANTEO         MOSUNNY   70  57  63 SW6       30.26F
CAPE HATTERAS  PTSUNNY   72  56  57 SE8       30.25F
TARBORO*       FAIR      77  52  41 E5        30.24F
GOLDSBORO      PTSUNNY   75  55  50 VRB2      30.21F
WASHINGTON     PTSUNNY   73  55  52 E6        30.25F
GREENVILLE     MOSUNNY   75  55  50 SE5       30.24F
NEW BERN       CLOUDY    74  54  49 VRB3      30.24F
WILMINGTON     PTSUNNY   74  59  59 E10       30.21S
$$

VAZ048-061700-
ELSEWHERE

CITY           SKY/WX    TMP DP  RH WIND       PRES   REMARKS
HARRISBURG PA  PTSUNNY   63  54  72 VRB5      30.26F
BALTIMORE      MOSUNNY   75  61  61 E8        30.22S
ANNAPOLIS      MOSUNNY   71  63  75 SE8       30.23S
ANDREWS AFB    SUNNY     75  66  73 VRB7      30.21F
PHILADELPHIA   PTSUNNY   70  46  42 E13       30.27F
HENDERSON NC   MOSUNNY   76  56  48 S5        30.24S
GREENSBORO     PTSUNNY   77  55  46 CALM      30.23S
ROCKY MOUNT    MOSUNNY   76  52  43 SE6       30.24F
$$

VAZ100-061700-
MARINE

STATION/POSITION TIME  TEMP    WIND        PRES    WAVE   SWELL
                       AIR SEA DIR/SP/G            HT/PER HT/PER
                 (UTC) (F)     (DEG/KT/KT) (MB)    (FT/S) (FT/S)
BRANDYWINE LGT   1500   62 56  120/ 13/ 16 1024.3R
CAPE MAY NJ      1500   68 62   60/ 12/ 17 1024.0R
LEWES DE         1500   69 58   60/  6/  6 1023.8R
15NM E FENWICK I 1550   57 55              1023.7R   2/ 5
OCEAN-CITY-INLET 1500   60 53  190/  5/  8 1023.7R
WACHAPREAGUE VA  1500   69 66  190/  8/ 10 1024.0F
THOMAS POINT MD  1600   65 62  210/  5/  5 1024.2S
GOOSES REEF MD   1600   65 64                N/A     1/ 2
COVE POINT MD    1500   63     160/  7/  8 1024.5R
SOLOMONS ISLAND  1500      60                N/A
BISHOPS HEAD MD  1500   66 71  140/  8/  9 1023.5F
PINEY POINT MD   1500          110/  4/  4   N/A
CAMBRIDGE MD     1500   69 64   10/  3/  3 1023.4F
LEWISETTA VA     1500   72 67              1023.2F
RAPPAHANNOCK LGT 1500          170/  9/  9 1024.6F
YORK RVR RNG VA  1500          190/  6/  6 1023.4S
YORKTOWN VA      1500          230/  3/  5 1023.5S
JAMESTOWN VA     1600   73 70  120/  2/  2 1022.8F
DOMINION TERM VA 1500   67     220/  4/  5 1024.2F
KIPTOPEKE VA     1500      67  170/  6/  6   N/A
CHES BAY BRIDGE  1500   69 60  110/  4/  5 1023.8F
CAPE HENRY VA    1500   66     100/  8/  9 1022.9F
CHESAPEAKE LGHT  1500   64     180/  9/  9 1025.1F
WILLOUBY STN VA  1500   67     270/  6/  6 1024.7F
S CRANEY ISL VA  1500          200/  5/  6 1024.0F
CAPE HENRY BUOY  1528      63                N/A     2/11
1ST LANDING BUOY 1600      64                N/A
CAPE CHARLES BUO 1526      58                N/A     1/11   2/11
OFFSHORE WE BUOY 1511      61                N/A     2/11   2/11
64NM E OF VA BCH 1550   63 59  190/  4/  4 1024.8S   2/11   2/11
DUCK PIER NC     1500   65 52  130/  5/  5 1024.1R
44056 DUCK FRF   1511      60                N/A     2/11
OREGON INLET NC  1500   71 70  100/  6/  8 1025.1R
HATTERAS NC      1500   71 67  100/  6/  9 1024.4F
DIAMOND SHLS NC  1550   71 74  100/ 10/ 12 1024.2F   3/11   3/11
CAPE LOOKOUT NC  1600   68      40/ 11/ 12 1023.1F
$$



USA.gov is the U.S. government's official web portal to all federal, state and local government web resources and services.